METEOSAT-10 (MSG-3)

Last updated on Fri Jul 11 2025 00:02:20 GMT+0000 (Coordinated Universal Time)

1 38552U 12035B 25191.27634421 .00000010 00000+0 00000+0 0 9990 2 38552 3.8594 62.0525 0000984 62.8839 263.6563 1.00280099 47428
UTC large
Height (km)
Speed (km/s)
/
Latitude / Longitude
Inclination (degrees)
Orbital Period (minutes)
Azimuth
Elevation
Range (km)
Doppler Factor

Next 0 passes for location: London (51.5072 / 0.1276)

Sorry there are no passes over London.